Content
SEND FEEDBACK

Daily
Averages
Monthly
Summary
United States of America

GREENSBURG, INDIANA


Home > North America > United States > Indiana
Elevation: 949 feet     Latitude: 39 20N     Longitude: 085 28W

WEATHER
 
SELECT A DAY
Number of Records: 177,991;   Date Range: 10/15/98 - 12/23/14
 
SHARE

PRINT THIS DATA

[ ← Previous Day ]
WEATHER ALMANAC - JUNE 18, 2014
[ Next Day → ]
[ °C ]   °F
Weather ElementAverageHighLow
Temperature79.7 °F91 °F (3:53 pm)73 °F (6:19 pm)
Dewpoint68.8 °F71.1 °F (8:53 am)63 °F (6:10 pm)
Humidity70.9 %87 % (9:53 pm)48 % (3:53 pm)
Barometer30.00 in30.06 in (9:53 am)29.96 in (5:53 pm)
Wind Speed11.6 mph31.1 mph (6:19 pm)
Wind Gust41.4 mph (6:19 pm)
Weather ElementAverage
Visibility9.4 mi
Wind DirectionSSW (211 °)

Weather ElementTotal
Precipitation0.31 in
Cooling Degree Days17 (Base 65)
Growing Degree Days32 (Base 50)
Averaged from 30 records on June 18, 2014
WEATHER CONDITIONS BREAKOUT
WIND DIRECTION BREAKOUT
WEATHER BY HOUR - JUNE 18, 2014
[ °C ]   °F
Local TimeTemperatureDewpointHumidityBarometerVisibilityWind DirectionWind SpeedGust SpeedPrecipitationEventsConditions
1:53 AM77.0 °F70.0 °F79 %30.01 in10.0 miSSW (200°)6.9 mphClear
2:53 AM77.0 °F70.0 °F79 %30.01 in10.0 miSSW (200°)8.1 mphClear
3:53 AM75.9 °F69.1 °F79 %30.01 in10.0 miSSW (200°)5.8 mphClear
4:53 AM73.9 °F69.1 °F85 %30.00 in10.0 miSW (220°)5.8 mphClear
6:53 AM73.9 °F69.1 °F85 %30.01 in9.0 miSouth (190°)5.8 mphClear
7:53 AM75.0 °F70.0 °F84 %30.04 in8.0 miSouth (190°)5.8 mphClear
8:53 AM79.0 °F71.1 °F77 %30.05 in10.0 miSW (220°)8.1 mphClear
9:53 AM82.9 °F71.1 °F67 %30.06 in10.0 miWSW (240°)12.7 mphClear
10:53 AM84.9 °F71.1 °F63 %30.03 in10.0 miWSW (240°)10.4 mphMostly Cloudy
11:53 AM88.0 °F71.1 °F57 %30.03 in10.0 miSW (230°)13.8 mphPartly Cloudy
12:53 PM88.0 °F70.0 °F55 %30.03 in10.0 miSW (220°)9.2 mphPartly Cloudy
1:53 PM90.0 °F71.1 °F54 %30.01 in10.0 miSW (220°)16.1 mph20.7 mphScattered Clouds
2:53 PM90.0 °F70.0 °F52 %29.99 in10.0 miSouth (190°)16.1 mphPartly Cloudy
3:53 PM91.0 °F69.1 °F48 %29.97 in10.0 miSW (220°)18.4 mphScattered Clouds
4:53 PM91.0 °F69.1 °F48 %29.97 in10.0 miSW (230°)16.1 mph25.3 mphClear
5:41 PM90.0 °F69.1 °F50 %29.98 in10.0 miSSW (210°)13.8 mphThunderstormScattered Clouds
5:53 PM89.1 °F69.1 °F52 %29.96 in10.0 miSW (220°)15.0 mphThunderstormScattered Clouds
6:10 PM79.0 °F63.0 °F58 %30.02 in10.0 miNW (320°)27.6 mph38.0 mphThunderstormThunderstorm
6:19 PM73.0 °F66.0 °F79 %30.03 in2.5 miNNW (330°)31.1 mph41.4 mph0.06 inRain-ThunderstormLight Thunderstorms and Rain
6:35 PM79.0 °F69.1 °F72 %30.01 in3.0 miWNW (290°)9.2 mph34.5 mph0.10 inRain-ThunderstormLight Thunderstorms and Rain
6:53 PM75.9 °F68.0 °F76 %30.03 in10.0 miNorth0.11 inThunderstormThunderstorm
7:00 PM73.9 °F64.9 °F73 %30.03 in10.0 miNorth (360°)13.8 mph18.4 mphThunderstormOvercast
7:40 PM73.9 °F66.0 °F76 %29.99 in10.0 miSouth (190°)13.8 mph0.02 inThunderstormThunderstorm
7:53 PM73.9 °F66.9 °F79 %29.96 in10.0 miSouth (190°)17.3 mph0.02 inThunderstormThunderstorm
8:03 PM73.9 °F66.9 °F79 %29.97 in10.0 miSouth (190°)12.7 mphThunderstormPartly Cloudy
8:17 PM73.9 °F68.0 °F82 %29.98 in10.0 miSSW (210°)6.9 mphClear
8:53 PM75.0 °F68.0 °F79 %29.96 in10.0 miSE (130°)3.5 mphClear
9:53 PM73.9 °F70.0 °F87 %29.98 in9.0 miSSE (160°)3.5 mphClear
10:53 PM73.9 °F70.0 °F87 %30.00 in9.0 miSE (140°)3.5 mphMostly Cloudy
11:53 PM73.9 °F69.1 °F85 %30.00 in10.0 miSouth (180°)5.8 mphClear
Hourly data recorded from KGEZ, located miles away from Greensburg, Indiana







STORIES FROM OUR PARTNERS